This is the latest recevied weather packets stored in our database for station/object KC6OYN. If no packets are shown the sender has not sent any weather packets the latest 10 day(s).
| Time | Temp. | Humidity | Pressure | Rain* | Wind** | Luminosity | Snow |
|---|---|---|---|---|---|---|---|
| 1778007449 | 13.89° C | 74% | 1024.4 hPa | 0 mm | - | - | - |
| 1778007209 | 14.44° C | 75% | 1024.5 hPa | 0 mm | - | - | - |
| 1778006967 | 14.44° C | 75% | 1024.4 hPa | 0 mm | - | - | - |
| 1778006726 | 14.44° C | 76% | 1024.5 hPa | 0 mm | - | - | - |
| 1778006485 | 14.44° C | 75% | 1024.5 hPa | 0 mm | - | - | - |
| 1778006244 | 14.44° C | 75% | 1024.3 hPa | 0 mm | - | - | - |
| 1778006004 | 14.44° C | 78% | 1024.5 hPa | 0 mm | - | - | - |
| 1778005522 | 14.44° C | 79% | 1024.5 hPa | 0 mm | - | - | - |
| 1778005281 | 13.89° C | 79% | 1024.5 hPa | 0 mm | - | - | - |
| 1778005040 | 13.89° C | 79% | 1024.5 hPa | 0 mm | - | - | - |
| 1778004799 | 13.33° C | 80% | 1024.5 hPa | 0 mm | - | - | - |
| 1778004558 | 13.33° C | 79% | 1024.4 hPa | 0 mm | - | - | - |
| 1778004317 | 13.33° C | 80% | 1024.4 hPa | 0 mm | - | - | - |
| 1778004077 | 13.33° C | 80% | 1024.3 hPa | 0 mm | - | - | - |
| 1778003835 | 13.33° C | 82% | 1024.3 hPa | 0 mm | - | - | - |
| 1778003595 | 12.78° C | 82% | 1024.3 hPa | 0 mm | - | - | - |
| 1778003354 | 12.78° C | 83% | 1024.4 hPa | 0 mm | - | - | - |
| 1778003113 | 12.78° C | 84% | 1024.3 hPa | 0 mm | - | - | - |
| 1778002872 | 12.22° C | 84% | 1024.4 hPa | 0 mm | - | - | - |
| 1778002631 | 12.22° C | 85% | 1024.4 hPa | 0 mm | - | - | - |
| 1778002390 | 11.67° C | 85% | 1024.4 hPa | 0 mm | - | - | - |
| 1778002149 | 11.67° C | 85% | 1024.3 hPa | 0 mm | - | - | - |
| 1778001908 | 11.11° C | 85% | 1024.2 hPa | 0 mm | - | - | - |
| 1778001667 | 11.67° C | 84% | 1024.2 hPa | 0 mm | - | - | - |
| 1778001413 | 11.67° C | 84% | 1024.1 hPa | 0 mm | - | - | - |
* Rain since midnight (hover to see other rain measurements)
** Current wind speed in m/s (hover to see current wind gust speed)